Probability
0 0 0 0 0 0 0 0 0 0 0 0 0 0 0 0 0 0 0 0 0 0 0 0 0 1 2 2 1 0 0 0 0 0 1 2 2 2 2 2 2 1 0
0 0 0 0 0 0 0 0 0 0 0 0 0 0 0 0 0 0 0 0 0 0 0 0 0 0 1 1 0 0 0 0 0 0 0 1 1 1 1 1 1 0 0
0 0 0 0 0 0 0 0 0 0 0 0 0 0 0 0 0 0 0 0 0 0 0 0 0 0 0 0 0 0 0 0 0 0 0 0 0 0 0 0 0 0 0
0 0 0 0 0 0 0 0 0 0 0 0 0 0 0 0 0 0 0 0 0 0 0 0 0 0 0 0 0 0 0 0 0 0 0 0 0 0 0 0 0 0 0
0 0 0 0 0 0 0 0 0 0 0 0 0 0 0 0 0 0 0 0 0 0 0 0 0 0 0 0 0 0 0 0 0 0 0 0 0 0 0 0 0 0 0
0 0 0 0 0 0 0 0 0 0 0 0 0 0 0 0 0 0 0 0 0 0 0 0 0 0 0 0 0 0 0 0 0 0 0 0 0 0 0 0 1 1 1
0 0 0 0 0 0 0 0 0 0 0 0 0 0 0 0 0 0 0 0 0 0 0 0 0 0 0 0 0 0 0 0 0 0 0 0 0 0 0 1 2 2 2
0 0 0 0 0 0 0 0 0 0 0 0 0 0 0 0 0 0 0 0 0 0 0 0 0 0 0 0 0 0 0 0 1 0 0 0 0 0 0 1 2 3 3
0 0 0 0 0 0 0 0 0 0 0 0 0 0 0 0 0 0 0 0 0 0 0 0 0 0 0 0 0 0 0 0 0 0 0 0 0 0 0 0 1 3 3
0 0 0 0 0 0 0 0 0 0 0 0 0 0 0 0 0 0 0 0 0 0 0 0 0 0 0 0 0 0 0 0 0 0 0 0 0 0 0 0 1 2 2
0 0 0 0 0 0 0 0 0 0 0 0 0 0 0 0 0 0 0 0 0 0 0 0 0 0 0 0 0 0 0 0 0 0 0 0 0 0 0 0 0 1 1
0 0 0 0 0 0 0 0 0 0 0 0 0 0 0 0 0 0 0 0 0 0 0 0 0 0 0 0 0 0 0 0 0 0 0 0 0 0 0 0 0 0 0
0 0 0 0 0 0 0 0 0 0 0 0 0 0 0 0 0 0 0 0 0 0 0 0 0 0 0 0 0 0 0 0 0 0 0 0 0 0 0 0 0 0 0
0 0 0 0 0 0 0 0 0 0 0 0 0 0 0 0 0 0 0 0 0 0 0 0 0 0 0 0 0 0 0 0 0 0 0 0 0 0 0 0 0 0 0
0 0 0 0 0 0 0 0 0 0 0 0 0 0 0 0 0 0 0 0 0 0 0 0 0 0 0 0 0 0 0 0 0 0 0 0 0 0 0 0 0 0 0
0 0 0 0 0 0 0 0 0 0 0 0 0 0 0 0 0 0 0 0 0 0 0 0 0 0 0 0 0 0 0 0 0 0 0 0 0 0 0 0 0 0 0
0 0 0 0 0 0 0 0 0 0 0 0 0 0 0 0 0 0 0 0 0 0 0 0 0 0 0 0 0 0 0 0 0 0 0 0 0 0 0 0 0 0 0
0 0 0 0 0 0 0 0 0 0 0 0 0 0 0 0 0 0 0 0 0 0 0 0 0 0 0 0 0 0 0 0 0 0 0 0 0 0 0 0 0 0 0
0 0 0 0 0 0 0 0 0 0 0 0 0 0 0 0 0 0 0 0 0 0 0 0 0 0 0 0 0 0 0 0 0 0 0 0 0 0 0 0 0 0 0
0 0 0 0 0 0 0 0 0 0 0 0 0 0 0 0 0 0 0 0 0 0 0 0 0 0 0 0 0 0 0 0 0 0 0 0 0 0 0 0 0 0 0
0 0 0 0 0 0 0 0 0 0 0 0 0 0 0 0 0 0 0 0 0 0 0 0 0 0 0 0 0 0 0 0 0 0 0 0 0 0 0 0 0 0 0
0 0 0 0 0 0 0 0 0 0 0 0 0 0 0 0 0 0 0 0 0 0 0 0 0 0 0 0 0 0 0 0 0 0 0 0 0 0 0 0 0 0 0
0 0 0 0 0 0 0 0 0 0 0 0 0 0 0 0 0 0 0 0 0 0 0 0 0 0 0 0 0 0 0 0 0 0 0 0 0 0 0 0 0 0 0
0 0 0 0 0 0 0 0 0 0 0 0 0 0 0 0 0 0 0 0 0 0 0 0 0 0 0 0 0 0 0 0 0 0 0 0 0 0 0 0 0 0 0
0 0 0 0 0 0 0 0 0 0 0 0 0 0 0 0 0 0 0 0 0 0 0 0 0 0 0 0 0 0 0 0 0 0 0 0 0 0 0 0 0 0 0
0 0 0 0 0 0 0 0 0 0 0 0 0 0 0 0 0 0 0 0 0 0 0 0 0 0 0 0 0 0 0 0 0 0 0 0 0 0 0 0 0 0 0
Wind_Speed
2 2 2 2 2 2 2 3 3 4 4 5 5 5 5 5 4 4 4 9 9 9 9 9 9 9 9 9 9 9 9 8 8 9 9 10 10 10 10 10 10 10 10
2 2 2 2 2 2 2 3 4 4 4 4 5 5 5 4 5 5 4 6 10 11 11 11 11 10 10 10 9 9 9 8 8 8 9 9 9 9 9 10 10 10 10
2 2 2 2 2 2 3 3 4 4 4 4 5 5 4 4 4 5 5 4 5 9 12 11 11 11 11 10 10 9 9 9 9 9 9 9 9 9 9 10 10 10 10
3 3 2 2 2 3 3 3 3 4 4 4 4 4 4 4 5 5 5 5 4 5 8 12 12 11 11 11 10 9 9 9 9 9 9 9 9 10 10 10 10 10 10
3 3 2 2 3 3 3 3 3 3 4 4 4 4 4 4 4 5 5 5 5 5 5 8 12 13 12 12 11 10 9 9 9 9 9 9 9 9 10 10 10 11 11
3 3 3 3 3 3 3 3 4 3 3 3 5 5 4 4 4 4 4 4 5 6 5 6 6 8 12 12 12 11 10 10 10 10 9 9 9 9 9 10 10 11 11
3 3 3 2 3 3 3 4 4 4 2 2 3 3 3 4 4 4 3 4 5 5 5 5 4 4 5 11 12 12 12 11 10 10 10 10 9 9 9 9 10 10 11
2 3 3 2 3 3 4 3 3 3 1 1 2 2 2 3 4 4 4 4 4 4 5 5 5 5 4 4 8 12 12 11 10 10 10 9 9 9 9 9 9 10 11
2 3 3 3 3 3 3 3 3 4 2 1 1 3 3 1 1 3 4 4 4 3 3 3 5 5 5 4 4 8 12 11 10 10 10 10 10 10 9 9 9 9 10
1 2 3 3 3 2 3 3 3 2 3 2 1 1 2 3 3 1 2 3 3 3 4 4 4 4 5 4 5 9 11 11 11 10 10 10 10 10 10 8 9 9 10
1 1 2 2 2 2 3 3 3 3 2 2 2 1 2 2 2 3 0 2 3 3 3 3 3 3 4 4 4 7 10 10 11 11 10 10 10 10 10 9 9 10 10
1 1 1 2 2 2 2 2 3 3 2 2 2 2 2 2 2 3 2 0 1 2 2 2 3 3 3 4 5 8 9 10 10 10 11 11 10 10 10 10 10 10 10
0 0 1 1 1 2 2 2 3 2 2 2 2 2 2 2 2 3 3 2 0 1 2 2 2 2 3 3 4 8 9 9 10 10 10 10 10 10 10 11 10 10 10
1 1 2 2 2 2 2 2 2 1 2 2 2 2 1 1 2 3 3 4 2 1 2 2 2 2 2 2 4 6 5 9 9 9 9 10 10 10 11 11 11 11 11
1 2 2 2 2 2 2 3 2 2 2 2 1 2 2 1 2 2 2 3 4 2 1 2 2 2 2 1 4 3 3 7 8 8 8 8 9 9 10 10 10 10 11
1 2 2 2 2 2 2 2 2 2 2 1 1 2 2 1 2 2 2 2 2 3 2 1 1 1 2 2 4 3 3 7 8 9 8 8 8 8 8 8 8 9 9
1 2 2 3 3 2 2 3 2 2 2 2 1 2 2 2 2 2 2 2 2 2 2 1 1 1 1 2 3 3 2 3 4 8 8 8 8 7 7 7 8 8 8
2 2 2 2 2 2 2 2 2 2 2 2 2 2 2 2 3 2 2 2 2 2 3 1 1 1 1 1 2 2 3 3 2 6 7 8 7 7 7 7 7 7 7
2 2 3 3 2 2 3 2 2 2 2 2 2 2 2 3 3 2 2 2 1 2 2 2 0 1 1 1 2 2 3 3 3 3 5 6 7 7 7 6 6 6 6
3 3 2 3 2 2 2 2 2 2 2 1 1 2 3 3 3 3 3 2 3 3 2 2 1 1 1 1 1 2 2 2 3 3 4 4 5 6 7 6 6 5 5
3 3 3 2 2 2 2 3 3 3 2 2 1 1 2 3 5 4 3 3 4 3 2 2 1 1 1 1 1 1 1 2 2 2 2 3 3 3 4 5 5 6 5
3 3 3 3 2 2 4 6 5 3 3 2 2 1 1 2 3 5 6 6 6 5 4 3 1 1 1 1 1 0 0 1 2 2 2 2 2 2 3 2 4 5 5
3 3 3 3 2 2 4 5 6 4 3 2 2 1 1 2 3 3 3 4 4 4 5 5 3 3 2 3 2 1 1 1 1 1 1 2 2 2 2 3 5 5 5
3 3 3 3 2 3 4 5 6 4 3 2 2 2 2 1 2 4 4 3 2 1 2 3 3 3 2 2 3 3 2 1 1 1 1 1 2 2 2 2 5 6 6
3 3 3 4 3 3 5 6 6 4 3 2 1 2 3 2 3 6 5 3 1 0 1 3 3 1 1 2 4 3 2 1 1 1 0 0 1 2 2 2 3 5 6
4 4 3 3 4 4 5 7 7 3 3 2 1 1 3 4 4 6 4 4 3 2 1 1 1 2 1 1 3 3 2 2 1 1 1 0 1 1 2 2 2 3 3
Wind_Direction
69 64 52 47 49 54 58 67 70 69 67 64 64 64 56 47 40 34 20 37 42 41 44 50 53 54 55 57 55 50 43 42 40 36 35 38 38 34 30 28 27 27 24
91 83 69 62 58 61 66 76 81 79 72 71 65 60 54 44 38 32 25 27 35 39 43 47 50 50 50 54 54 50 45 41 38 39 39 40 38 34 31 29 28 27 26
105 101 89 75 71 79 84 81 76 73 75 72 64 56 50 44 41 38 32 28 25 34 39 43 45 45 45 47 48 46 44 40 39 38 39 38 37 34 31 30 30 31 31
116 108 100 90 90 89 87 89 81 79 72 71 63 49 43 41 40 40 37 33 31 29 28 37 39 39 39 40 42 42 41 42 42 41 42 41 38 36 35 33 33 34 34
111 107 103 103 101 94 90 100 82 88 90 81 74 59 44 40 32 37 37 35 35 36 31 31 34 34 34 33 32 34 38 41 42 43 43 42 39 37 38 37 35 35 36
104 104 100 100 102 100 89 93 92 76 85 87 80 65 48 42 38 33 30 31 32 37 35 31 26 21 27 28 28 28 34 40 42 41 40 40 39 38 38 39 38 37 37
113 111 108 101 102 109 117 120 109 93 81 93 83 60 38 40 44 33 29 33 32 30 32 31 25 21 11 20 23 27 32 34 38 40 40 39 40 40 39 43 43 41 40
123 130 129 127 117 118 118 124 122 115 107 91 108 96 44 15 17 27 26 36 29 23 29 30 25 24 13 8 15 24 25 27 33 37 38 38 40 40 43 46 47 46 44
120 127 135 132 132 136 147 152 148 144 148 87 85 129 131 169 347 1 21 30 25 24 14 14 23 17 13 10 2 14 22 23 29 34 38 38 40 42 44 48 49 49 46
101 125 137 136 142 144 155 169 159 151 141 140 75 58 110 145 136 45 355 6 20 22 11 14 11 9 9 6 9 20 25 24 28 33 35 38 41 43 45 49 52 51 49
72 114 132 136 143 151 162 164 153 153 146 149 148 127 90 73 95 129 81 341 359 359 3 5 6 4 6 4 2 20 29 28 29 32 33 37 39 42 44 48 51 50 48
39 81 124 132 142 146 157 166 161 156 154 144 143 146 151 148 155 140 147 181 331 324 349 6 11 0 4 2 8 24 31 32 32 33 35 37 38 39 42 45 47 46 47
27 214 134 131 136 145 147 142 139 149 156 151 159 163 162 162 150 142 135 147 96 324 344 358 354 354 6 5 359 16 32 36 35 37 38 37 37 37 39 41 43 43 44
204 173 138 123 119 123 127 125 119 136 134 146 162 161 145 151 148 149 150 144 115 5 359 330 333 349 351 354 359 8 18 35 37 39 41 40 39 40 42 42 42 41 42
167 135 127 125 117 118 127 125 113 118 117 119 137 140 127 128 134 136 138 143 142 148 297 308 322 328 334 352 7 5 2 27 33 36 41 43 44 44 44 43 42 41 41
132 127 126 129 120 117 120 117 109 111 110 106 123 123 116 121 117 116 123 119 129 145 171 272 276 294 327 12 26 12 7 17 28 34 38 43 45 44 42 41 40 40 39
146 144 143 141 136 128 120 121 125 117 109 98 103 122 120 122 120 114 108 108 111 125 146 282 317 333 5 4 357 0 2 3 8 27 33 40 42 42 39 38 37 36 36
172 162 147 145 142 134 132 139 140 133 134 135 138 125 128 125 117 121 120 117 123 129 140 157 337 352 354 343 345 354 2 10 2 19 26 33 37 38 37 36 34 32 32
166 160 152 159 158 156 149 151 146 141 145 155 153 149 154 139 136 135 129 124 121 109 110 131 124 360 353 359 8 359 7 357 356 12 18 23 29 30 31 30 30 30 33
163 162 159 163 163 162 158 154 145 143 141 140 147 156 158 159 165 157 144 137 125 108 101 104 91 29 358 347 29 11 357 357 354 2 9 15 17 16 17 24 27 28 33
169 161 151 150 154 159 174 166 159 154 153 148 136 146 154 167 172 162 151 151 138 125 117 108 99 51 358 2 312 295 303 325 332 356 350 0 4 3 2 5 16 25 34
160 151 160 163 173 189 178 172 160 155 159 158 161 164 147 152 165 154 147 146 146 145 152 144 148 174 239 228 215 183 164 15 325 344 11 340 11 349 339 344 9 25 31
165 165 174 172 184 202 184 172 164 149 148 158 163 157 130 121 140 135 131 133 139 141 150 155 160 198 207 211 177 165 174 171 234 307 33 326 351 341 335 357 11 21 24
170 175 180 186 187 210 189 170 157 144 138 152 164 167 158 152 141 139 124 111 109 118 161 157 175 199 196 188 181 184 186 175 282 346 76 308 325 318 340 347 8 23 27
174 180 181 184 190 216 191 174 154 139 142 160 163 161 167 167 157 147 135 136 127 322 129 145 150 159 139 137 136 107 95 96 313 317 41 227 296 313 326 335 354 13 20
181 178 182 190 195 209 189 178 164 148 154 167 160 172 175 175 168 158 156 159 178 229 136 88 58 29 37 61 134 149 161 152 178 287 289 207 285 335 322 320 348 355 1